STARLINK-33616, 63385

Orbit data source: Space-Track

STARLINK-33616, 63385 is a payload satellite owned by SpaceX/Seattle (US) in LEO that was launched on Wed, 26 Mar 2025 UTC via an FALCON 9 launch vehicle from the Air Force Western Test Range (AFWTR). Payload-class satellites include a variety of spacecraft equipped with specific instruments for various scientific and technological missions. These include communications satellites like Starlink; space stations such as the ISS; scientific satellites like the Hubble; Earth observation satellites from companies like Planet Labs, Umbra, and HawkEye 360; GPS; miniature CubeSats for education and research; and military/defense satellites.

Loading next visibility...
Identifier
63385, 2025-063Y
Orbit
LEO
Country
Flag of USUS
Related business
Manufacturer
SpaceX/Seattle
Mission
Operational Commercial Communications
Bus & Motor
STARLINK V2MO, Unknown motor
Mass
575 kg wet, ~530 kg dry
Launch date (UTC)
2025-03-26 (1 year ago)
Launch vehicle
FALCON 9
Launch site
Air Force Western Test Range (AFWTR)
Object type
Payload
Rocket body
Debris
Shape & HBR
Box + 2 Pan, 17.7 m
Radar Cross Section
36.964 m², Large (>1 m²)

Expand to show TLE details & history
Last TLE update: 1 day ago

TLE from 1 day ago
0 STARLINK-33616
1 63385U 25063Y   26170.67290749  .00027373  00000-0  93255-3 0  9990
2 63385  53.1592 309.4096 0001144  78.2161 281.8968 15.30212827 70176
Epoch: 2026-06-19T16:08Z
TLE epoch observation values (Epoch: 2026-06-19T16:08:59.207Z)
Latitude
-0.00001°
Longitude
159.26439°
Altitude
475.915 km
Speed
7.629 km/s
True Right ascension
20h 37m 38s
True Declination
0° 00' 00"
Sunlit
Object was in full shadow at epoch
Visualization orbit readout
Latitude
Unknown
Longitude
Unknown
Altitude
Unknown
Speed
Unknown
Apparent Right ascension
Unknown
Apparent Declination
Unknown
Sunlit
N/A
Visualization observer readout
Local Sidereal Time
07:17:35
Azimuth
Unknown
Elevation
Unknown
Doppler factor
Unknown
Orbital elements
Apogee altitude
476.217 km
Perigee altitude
474.649 km
Semi-major axis
6,853.57 km
Eccentricity
0.00011
Inclination
53.1592°
RAAN
309.4096°
Arg. of periapsis
78.2161°
True anomaly
281.88397°
Mean anomaly
281.8968°
Eccentric anomaly
281.89039°
Mean motion
3.82532 °/min
Orbital period
94.11 mins
BSTAR
0.00093255
Loading maneuver chart data...
Computing Atmospheric mass density...
Loading historical data...
Loading historical data...
Loading historical data...
Loading historical data...
Loading historical data...
Loading historical data...
Loading historical data...

Documentation

Showing up to 5 results
|